CDT,Max TemperatureF,Mean TemperatureF,Min TemperatureF,Max Dew PointF,MeanDew PointF,Min DewpointF,Max Humidity, Mean Humidity, Min Humidity, Max Sea Level PressureIn, Mean Sea Level PressureIn, Min Sea Level PressureIn, Max VisibilityMiles, Mean VisibilityMiles, Min VisibilityMiles, Max Wind SpeedMPH, Mean Wind SpeedMPH, Max Gust SpeedMPH,PrecipitationIn, CloudCover, Events, WindDirDegrees
2012-9-1,83,78,72,75,73,71,100,90,79,30.01,29.91,29.81,10,8,2,21,9,31,1.22,7,Rain-Thunderstorm,146
2012-9-2,79,76,72,75,73,71,100,91,82,29.84,29.77,29.71,10,7,2,12,6,14,0.59,8,Rain,72
2012-9-3,83,77,70,73,72,70,100,85,69,29.88,29.84,29.79,10,8,2,15,6,17,0.01,7,Rain,36
2012-9-4,88,78,67,72,70,64,100,79,57,29.91,29.87,29.83,10,5,0,37,2,52,0.94,3,Fog-Rain-Thunderstorm,213
2012-9-5,81,73,64,73,67,63,100,87,74,29.97,29.88,29.76,10,7,1,26,6,32,0.71,3,Rain-Thunderstorm,157
2012-9-6,88,78,67,73,69,67,97,74,50,29.95,29.90,29.86,10,9,7,9,4,14,0.00,1,,231
2012-9-7,83,73,63,71,67,64,100,81,62,29.89,29.77,29.65,10,8,0,39,8,48,2.60,6,Fog-Rain-Thunderstorm,343
2012-9-8,72,64,55,64,54,48,100,72,44,29.96,29.90,29.82,10,10,4,21,11,26,T,2,Rain,316
2012-9-9,74,64,54,55,52,50,86,67,47,30.15,30.02,29.89,10,10,10,18,9,24,0.00,4,,329
2012-9-10,75,63,50,55,51,47,100,68,35,30.23,30.17,30.13,10,10,9,8,2,12,0.00,0,,122
2012-9-11,79,66,52,57,54,50,93,69,45,30.22,30.16,30.12,10,10,10,15,7,20,0.00,0,,166
2012-9-12,82,71,59,61,57,55,87,65,42,30.22,30.17,30.13,10,7,2,16,7,22,0.00,1,,185
2012-9-13,81,70,59,64,59,53,84,65,45,30.25,30.21,30.16,10,10,7,20,7,25,0.00,3,,181
2012-9-14,73,64,54,57,53,45,93,66,38,30.34,30.28,30.24,10,8,2,20,8,28,0.43,4,Rain,15
2012-9-15,73,62,51,55,51,29,100,69,38,30.33,30.23,30.15,10,6,0,10,2,15,0.00,0,Fog,150
2012-9-16,75,64,52,60,49,0,100,73,46,30.15,30.09,29.99,9,1,0,10,4,14,0.00,3,Fog,171
2012-9-17,74,66,57,66,62,58,100,84,68,29.99,29.89,29.76,10,9,3,23,3,29,T,6,Rain,211
2012-9-18,66,56,45,61,45,34,93,62,31,30.08,29.90,29.78,10,10,9,26,13,36,T,4,Rain,329
2012-9-19,69,55,40,45,41,38,89,61,33,30.15,30.07,29.98,10,10,10,17,9,26,0.00,0,,187
2012-9-20,76,65,54,55,46,36,80,52,23,29.98,29.95,29.90,10,9,1,17,8,22,T,1,Rain,237
2012-9-21,75,63,51,63,53,38,100,71,41,29.99,29.82,29.67,10,7,0,24,7,36,0.64,5,Fog-Rain-Thunderstorm,193
2012-9-22,62,53,43,54,45,35,100,70,39,30.20,29.99,29.84,10,6,0,28,9,36,0.00,2,Fog,277
2012-9-23,64,52,40,44,39,34,92,64,36,30.30,30.25,30.20,10,10,10,17,5,23,0.00,1,,303
2012-9-24,67,52,36,44,39,34,100,67,34,30.26,30.15,29.99,10,10,10,15,7,21,0.00,1,,185
2012-9-25,69,62,54,67,60,45,100,78,55,29.97,29.91,29.85,10,6,1,17,8,25,0.91,4,Rain-Thunderstorm,186
2012-9-26,72,68,63,66,64,62,100,90,79,30.06,29.99,29.90,10,8,2,14,4,22,0.12,6,Rain-Thunderstorm,205
2012-9-27,75,65,54,64,58,48,100,79,57,30.17,30.10,30.06,10,7,0,12,5,15,T,6,Fog-Rain,20
2012-9-28,71,62,52,52,51,49,93,73,53,30.16,30.11,30.06,10,10,9,16,8,20,0.00,1,,358
2012-9-29,74,60,45,53,49,46,100,71,41,30.13,30.05,29.95,10,9,5,12,5,14,0.00,0,,321
2012-9-30,72,60,47,51,47,44,93,66,38,29.94,29.90,29.86,10,10,10,17,7,25,0.00,0,,360